Location: Gleizolles
(44.4833°N, 6.7667°E)
Time: 09:40:05
(UTC+00:00)

Vanguard 2 - Pass Details

Date: 26 June 2024
Orbit: 552 x 2913 km, 32.9° (Epoch: 16 July)

Event Time Altitude Azimuth Distance (km) Brightness Sun altitude
Exits shadow 02:34:21 - 196° (SSW) 4,445 10.8 -10.9°
Reaches altitude 10° 02:35:08 10° 193° (SSW) 4,321 10.8 -10.8°
Maximum altitude 02:44:59 28° 141° (SE) 3,824 11.0 -9.6°
Drops below altitude 10° 02:57:38 10° 93° (E) 5,651 12.6 -8.0°
Sets 03:03:13 0° 83° (E) 6,757 13.3 -7.3°
